Погода в Фахардо

Пуэрто-Рико     18°19′25″N   65°39′18″W
темп.,
°C
ветер,
м/с
пор.,
м/с
влажн.,
%
обл.,
%
осадки,
мм/ч
давл.,
гПа
погр.,
м
9 августа, вт
вт923:00+24св38895 0.1 1016258
02:00+24всв49878 0.3 1015355
05:00+24всв368770 0.1 1016184
08:00+26всв387717 0.3 1017528
11:00+29всв576248 0.0 10181323
14:00+29всв5769100 0.1 10161193
17:00+27св5780100 0.4 1015903
20:00+24св379041 0.8 1017244
10 августа, ср
ср1023:00+24всв3790100 0.7 1017230
02:00+23всв2592100 1.6 1016144
05:00+24в3787100 0.4 1016240
08:00+26в4679100 0.5 1017470
11:00+28в557061 0.1 10181183
14:00+29в557051 0.1 10171194
17:00+27в567750 0.1 1016890
20:00+24всв3587100 0.3 1017146
11 августа, чт
чт1123:00+24всв378999 0.3 1017203
02:00+24в368836 0.4 1015195
05:00+23в3689100 0.3 1015190
08:00+25в4684100 0.9 1016656
11:00+27в5778100 2.1 1017902
14:00+27вюв567772 4.8 1016959
17:00+26в4680100 1.3 1015786
20:00+24в259098 1.6 1016173
12 августа, пт
пт1223:00+24в3689100 0.4 1017178
02:00+24в369092 1.0 1015180
05:00+23в369135 0.4 1015169
08:00+26в468398 0.7 1016777
11:00+28в567153 0.1 10171161
14:00+27в457375 0.3 1016997
17:00+27всв45737 0.1 1015973
20:00+23всв358614 0.1 1016152
13 августа, сб
сб1323:00+23всв358814 0.0 1016173
02:00+23св238997 0.1 1015121
05:00+24св2488100 0.2 1015138
08:00+26всв478480 0.8 1016659
11:00+27в467898 1.6 1017931
14:00+29в46678 2.3 10151191
17:00+27в467531 0.0 1014924
20:00+24всв259137 0.3 1015165